map of IFN home
IFN - Airport
Location
City:  Isfahan, Esfahan, Iran
Near (Alt.):Esfahan
Name:Isfahan International Airport
Old (Alt.):Esfahan Shahid Beheshti International Airport
ICAO:OIFM
IATA:IFN

Details
Type:Airport (Aerodrome, Airfield)
Use:Public/Civil, Military, International (customs port of entry)
Latitude:3245'03"N (32.750836)
Longitude:5151'41"E (51.861267)
Datum:WGS 1984
Elevation:5059 ft (1542 m)
Variation:4.00E (WMM2015 magnetic declination)
0.05 annual change
Runways:2
Longest:14425 × 148 ft (4397 × 45 m), paved

Time
Time Zone:UTC+3:30 (DST+4:30)
Local Time:

Weather
METAR:OIFM 211000Z 24004KT 7000 NSC 05/M09 Q1021 A3017
TAF:OIFM 210550Z 2106/2212 29004KT 8000 NSC
BECMG 2202/2203 3000 HZ
BECMG 2207/2208 7000

Related Locations
Nearby:
Farthest:GMR: 11652 mi / 18751 km
Mangareva [Totegegie], Gambier Islands, PF

Find:

   beyond  
but within

Other Information
Maps:
NOTAMs:
Links:
Sources:

  
  • flag of Iran
  

Sectional Chart

Flight Planning
at skyvector.com

Satellite Image

Google Maps Satellite view

 

Copyright © 2004-2019 Karl L. Swartz. All rights reserved.
The Great Circle Mapper name and logo are trademarks of the Great Circle Mapper.
All other trademarks mentioned herein belong to their respective owners.
Please see credits for attibutions and further copyright information.

  Follow gcmap on Facebook Follow gcmap on Twitter Follow gcmap on Google+ GCmap on LinkedIn

hCard Microformat

Geo Microformat